#timestamp,LO_Frequency,Hit,StdDev 
1683784815.3,286047000.3,N
1683784835.1,286047000.6,N
1683784855.9,286047000.1,N
1683784875.7,286047000.0,N
1683784895.6,286047000.9,N
1683784915.4,286047000.4,N
1683784935.2,286047002.0,N
1683784955.1,286047004.1,Y
1683784956.0,286047004.1,P
1683784975.8,286047002.4,N
1683785025.7,286047002.4,E
1683785035.6,286047000.2,N
1683785055.4,286046999.5,P
1683785075.3,286046999.4,N
1683785095.1,286046999.6,N
1683785115.8,286046998.4,Y
1683785135.7,286046998.5,P
1683785155.5,286046998.6,N
1683785175.4,286046998.5,N
1683785195.2,286046998.2,Y
1683785215.0,286047000.3,P
1683785215.9,286047000.3,N
1683785235.8,286047000.6,N
1683785255.6,286046999.9,N
1683785275.4,286046998.2,N
1683785295.3,286047003.2,Y
1683785315.1,286047004.7,P
1683785335.9,286047004.6,N
1683785355.7,286047005.6,N
1683785375.5,286047004.0,N
1683785395.4,286047003.6,N
1683785415.2,286047005.2,N
1683785435.0,286047007.0,Y
1683785435.9,286047007.0,P
1683785455.8,286047003.0,N
1683785475.6,286047004.5,N
1683785495.5,286047007.0,Y
1683785515.3,286046999.7,P
1683785535.1,286047004.0,N
1683785555.9,286047004.3,N
1683785575.7,286047001.5,N
1683785595.5,286047003.9,N
1683785615.4,286047004.2,N
1683785635.2,286047003.8,N
1683785655.1,286047002.4,N
1683785656.0,286047002.4,N
1683785675.8,286047000.2,N
1683785695.6,286046997.3,N
1683785715.5,286046995.7,N
1683785735.3,286046997.0,N
1683785755.1,286046999.4,N
1683785775.9,286046997.0,N
1683785795.7,286046999.3,N
1683785815.6,286047000.3,N
1683785835.4,286047000.5,N
1683785855.2,286047000.2,N
1683785875.1,286046999.8,N
1683785876.0,286046999.8,N
1683785895.8,286047001.3,N
1683785915.6,286047004.2,N
1683785935.5,286047004.4,N
1683785955.3,286047001.4,N
1683785975.2,286047002.4,N
1683785995.9,286047003.7,N
1683786015.7,286047003.0,N
1683786035.6,286047002.9,N
1683786055.4,286047004.1,N
1683786075.2,286047004.4,N
1683786095.1,286047005.6,N
1683786096.0,286047005.6,N
1683786115.8,286047005.2,N
1683786135.7,286047005.1,N
1683786155.5,286047005.5,N
1683786175.3,286047001.4,N
1683786195.2,286047004.2,N
1683786215.0,286047001.3,N
1683786215.9,286047001.3,N
1683786235.8,286047004.2,N
1683786255.6,286047002.5,N
1683786275.4,286047001.2,N
1683786295.3,286047000.2,N
1683786315.1,286047002.5,N
1683786335.8,286047005.7,N
1683786355.7,286047005.9,Y
1683786375.5,286047000.9,P
1683786395.4,286047000.3,N
1683786415.2,286046998.5,N
1683786435.0,286046999.2,N
1683786435.9,286046999.2,N
1683786455.8,286046999.0,N
1683786475.6,286046996.5,N
1683786495.4,286046995.0,N
1683786515.3,286046995.0,N
1683786535.1,286046995.4,N
1683786555.9,286046994.9,N
1683786575.7,286046995.3,N
1683786595.5,286046995.9,N
1683786615.4,286046996.4,N
1683786635.2,286046993.5,N
1683786655.0,286046994.0,N
1683786655.9,286046994.0,N
1683786675.8,286046993.7,N
1683786695.6,286046993.5,N
1683786715.5,286046996.4,N
1683786735.3,286046993.7,N
1683786755.1,286046995.9,N
1683786775.9,286046994.2,N
1683786795.7,286046994.4,N
1683786815.5,286046994.4,N
1683786835.4,286046994.1,N
1683786855.2,286046993.9,N
1683786875.0,286046993.7,N
1683786876.0,286046993.7,N
1683786895.8,286046994.2,N
1683786915.6,286046991.8,Y
1683786935.5,286046997.8,P
1683786955.3,286046997.8,N
1683786975.1,286046997.6,N
1683786995.9,286046995.0,Y
1683787015.7,286046999.5,P
1683787035.6,286046996.7,N
1683787055.4,286046996.5,N
1683787075.2,286046998.9,N
1683787095.1,286046998.6,N
1683787096.0,286046998.6,N
1683787115.8,286047001.2,N
1683787135.6,286046998.6,N
1683787155.5,286047001.0,N
1683787175.3,286047000.7,N
1683787195.2,286047000.3,N
1683787215.9,286047000.5,N
1683787235.7,286046998.2,N
1683787255.6,286047001.0,N
1683787275.4,286047000.6,N
1683787295.2,286047000.9,N
1683787315.1,286046998.2,N
1683787316.0,286046998.2,N
1683787335.8,286047001.2,N
1683787355.7,286047000.6,N
1683787375.5,286047000.4,N
1683787395.3,286047000.5,N
1683787415.2,286046998.4,N
1683787435.0,286046998.4,N
1683787435.9,286046998.4,N
1683787455.7,286046996.9,N
1683787475.6,286046997.7,N
1683787495.4,286046997.4,N
1683787515.3,286046994.9,Y
1683787535.1,286046997.1,P
1683787536.0,286046997.1,N
1683787555.8,286046997.5,N
1683787575.7,286046996.6,Y
1683787595.5,286047001.2,P
1683787615.4,286046996.6,N
1683787635.2,286046997.0,N
1683787655.0,286046996.6,N
1683787655.9,286046996.6,N
1683787675.8,286046999.2,N
1683787695.6,286046999.0,N
1683787715.4,286046999.1,N
1683787735.3,286046998.4,N
1683787755.1,286046998.9,N
1683787775.9,286046998.9,N
1683787795.7,286046999.2,N
1683787815.5,286046999.6,N
1683787835.4,286046997.8,N
1683787855.2,286046997.6,N
1683787875.1,286046995.4,Y
1683787876.0,286046995.4,P
1683787895.8,286046998.9,N
1683787915.6,286046999.1,N
1683787935.5,286046999.3,N
1683787955.3,286046998.5,N
1683787975.1,286046998.7,N
1683787995.9,286047001.0,N
1683788015.7,286047000.8,N
1683788035.6,286047000.7,N
1683788055.4,286046998.3,N
1683788075.2,286047000.6,N
1683788095.1,286046998.3,N
1683788096.0,286046998.3,N
1683788115.8,286047001.2,N
1683788135.7,286046998.7,N
1683788155.5,286046998.8,N
1683788175.3,286047001.2,N
1683788195.2,286046998.2,N
1683788215.9,286046999.1,N
1683788235.7,286046999.5,N
1683788255.6,286046999.6,N
1683788275.4,286046998.7,N
1683788295.2,286046998.9,N
1683788345.1,286046999.4,E
1683788355.0,286046998.8,N
1683788355.9,286046998.8,P
1683788375.8,286047000.9,P
1683788395.6,286047001.2,N
